GEFSMA_500_meanwind_012.txt.gz
Wind_Speed
16 17 16 14 13 12 11 10 11 13 15 17 17 18 19 21 22 22 22 21 19 17 16 14 13 13 15 17 16 14 13 13 13 12 10 7 7 7 6 5 5 5 5
17 17 16 14 13 13 12 12 12 12 14 16 17 17 18 19 21 22 22 21 19 17 16 15 14 14 16 19 18 16 15 14 13 13 11 9 8 8 6 6 6 6 5
18 19 17 15 13 13 13 13 13 13 14 15 16 16 15 15 16 18 19 19 19 16 14 14 14 15 17 20 20 18 17 16 15 14 13 11 10 9 9 8 8 7 5
18 20 20 16 14 13 13 14 15 15 15 15 16 16 14 14 14 15 17 18 18 17 14 13 14 15 17 19 20 19 18 18 16 15 14 12 12 12 11 10 9 8 6
19 20 22 20 16 14 15 16 16 16 16 15 15 15 14 14 14 15 16 17 18 18 16 15 15 15 15 17 19 20 20 19 18 17 16 15 15 14 12 11 9 8 6
22 22 23 23 20 18 17 17 18 17 16 15 14 14 13 13 13 14 15 16 17 18 16 16 16 15 15 16 17 18 18 19 19 18 17 17 16 15 12 10 8 7 5
25 24 24 26 25 22 20 19 19 19 17 15 14 14 13 12 12 13 14 15 16 16 16 17 16 16 15 16 16 16 17 17 17 17 17 16 15 14 12 10 8 6 5
27 27 26 27 28 26 23 21 20 20 18 17 16 15 13 13 11 11 12 13 14 15 15 17 17 16 16 16 16 16 15 15 14 14 13 13 13 13 13 12 9 7 6
29 28 27 27 29 28 25 23 21 22 21 20 19 17 16 14 12 11 11 11 12 13 14 16 17 18 17 17 17 16 15 14 13 12 12 12 11 12 14 13 11 9 8
30 28 27 27 28 28 25 22 23 23 22 21 21 20 19 17 14 12 11 10 9 10 12 14 17 19 19 19 19 18 16 15 14 14 14 14 13 13 14 15 14 13 12
30 29 27 26 26 25 23 22 23 24 22 22 22 22 20 19 18 15 13 11 9 8 9 11 14 17 19 20 20 19 18 17 16 16 16 16 16 16 16 17 18 17 16
28 27 26 25 24 24 23 21 20 21 20 21 22 23 22 21 21 19 16 13 11 9 8 9 10 13 17 19 19 19 19 18 17 16 15 15 15 16 16 17 19 19 19
25 24 24 24 23 23 24 23 21 21 21 22 22 24 24 24 24 22 19 16 14 12 11 10 10 11 13 15 17 18 17 17 16 15 14 14 14 15 16 17 18 20 20
21 21 21 21 21 22 23 24 23 23 23 24 25 26 26 26 26 25 23 20 18 17 15 14 14 14 14 15 15 16 16 15 15 15 15 15 15 15 16 17 18 20 21
18 18 19 18 18 19 21 22 23 24 24 25 27 28 27 28 27 28 27 25 23 21 19 17 17 17 17 17 17 17 17 16 16 16 17 17 17 17 16 16 17 18 19
17 17 17 17 17 17 18 19 21 22 23 24 26 28 29 30 29 29 29 27 25 24 22 20 19 19 19 19 19 19 20 19 18 18 18 19 19 18 17 17 17 17 18
16 16 16 17 17 17 17 18 18 20 21 23 26 29 31 33 33 32 31 30 28 27 24 22 21 20 20 20 20 20 20 20 20 18 19 19 19 19 18 18 18 18 19
16 17 17 17 18 18 18 18 18 18 19 20 21 26 31 33 34 36 35 33 31 29 27 24 22 22 22 22 23 22 21 21 21 20 19 19 19 19 19 18 19 20 20
18 18 19 19 20 19 19 19 20 20 20 20 20 20 24 31 35 37 36 33 31 30 29 28 26 24 24 24 25 25 24 23 22 22 21 21 21 21 20 20 21 21 21
19 20 20 21 22 22 22 22 21 22 22 21 20 19 20 24 32 36 35 32 31 30 31 30 28 27 27 26 26 27 26 25 25 26 26 25 25 25 24 24 23 23 24
20 20 20 22 23 23 24 24 24 23 22 22 21 20 19 20 24 31 34 33 32 31 31 30 29 28 29 29 28 28 27 27 27 28 29 28 28 28 28 27 26 26 25
22 21 21 21 22 24 25 26 26 25 25 24 23 21 21 21 21 23 27 29 30 30 30 29 29 29 30 31 31 29 28 27 28 30 31 30 30 29 30 29 29 28 27
22 23 23 23 23 24 25 26 27 27 26 26 25 24 23 22 22 22 23 25 27 28 29 30 30 29 29 30 30 29 28 27 28 30 31 31 31 30 30 30 30 30 29
23 24 24 24 24 24 26 27 27 27 27 27 27 26 25 25 24 24 24 25 25 27 28 28 29 30 30 30 30 29 28 27 27 28 31 31 31 30 30 31 31 31 30
23 23 23 23 24 25 26 27 27 28 28 29 29 28 27 26 26 26 26 25 26 26 26 27 27 28 30 31 32 32 31 31 30 29 31 30 29 29 29 30 31 30 30
20 19 19 20 21 22 24 26 27 27 28 29 30 30 29 27 25 25 25 25 25 25 25 26 27 28 29 30 31 32 33 33 32 31 32 32 30 30 30 30 31 31 30

GEFSMA_500_meanwind_018.txt.gz
Wind_Speed
10 12 14 14 12 11 9 8 9 10 11 13 15 17 19 21 22 23 24 24 23 22 20 18 17 15 14 14 14 14 13 14 16 18 17 14 10 8 7 7 7 6 7
10 11 12 14 13 11 10 9 10 11 12 13 15 16 18 19 19 21 22 23 23 23 21 20 19 18 17 16 16 16 15 14 15 16 17 15 11 8 7 6 7 7 7
10 12 12 14 15 14 13 12 12 12 13 14 15 16 17 17 18 19 20 21 22 22 21 20 19 19 19 18 18 19 18 16 16 16 16 15 13 10 7 7 7 7 8
11 12 14 14 15 15 14 13 14 14 15 15 16 16 16 16 16 17 18 19 20 21 21 19 18 17 19 19 20 20 19 18 17 17 16 16 15 12 10 8 8 8 8
12 13 14 15 16 16 16 15 14 16 18 18 17 17 16 17 17 17 17 17 17 19 19 19 18 17 18 20 21 21 21 20 19 18 17 17 17 15 13 10 9 9 9
14 15 17 17 18 18 19 18 16 17 19 20 19 18 16 17 17 17 16 16 17 18 18 18 18 17 17 19 20 22 21 21 19 19 18 18 18 17 15 13 12 11 10
16 18 19 20 20 20 21 21 20 19 19 20 21 19 18 16 17 17 16 17 17 18 18 19 19 18 18 18 19 21 21 21 21 20 20 19 19 19 17 16 14 13 12
18 19 21 22 22 23 23 23 23 21 20 20 21 20 19 17 16 16 16 16 17 18 19 19 20 20 20 20 20 20 20 21 21 21 21 21 20 20 19 18 17 15 14
20 21 22 23 24 25 26 26 26 24 21 21 21 21 20 19 17 16 15 15 15 17 18 20 21 22 22 22 21 20 20 21 21 21 21 21 20 19 19 19 19 18 17
22 22 23 24 25 27 27 27 26 25 23 22 22 22 22 21 19 17 16 15 15 16 17 19 21 22 23 23 22 21 20 20 20 20 20 20 20 19 19 19 21 21 20
23 23 23 24 25 27 27 27 27 26 24 23 24 24 24 23 22 20 18 16 15 15 16 18 20 21 22 23 22 21 20 20 20 20 20 19 19 19 19 20 21 22 21
23 23 24 24 25 25 26 27 27 27 25 23 24 25 26 26 24 22 20 18 16 15 15 16 18 18 19 21 22 22 21 21 21 20 20 19 19 19 19 20 20 21 22
23 23 23 24 23 24 25 25 26 28 26 24 23 24 25 26 27 26 23 20 18 17 16 15 16 16 17 18 20 21 22 22 21 21 21 20 20 19 19 19 19 21 22
22 22 23 22 22 22 22 22 23 23 23 23 23 22 23 24 26 27 26 24 22 20 18 16 15 15 15 16 17 19 20 21 22 21 21 20 19 17 17 17 18 19 20
20 21 21 21 21 20 19 19 19 20 21 21 21 21 22 23 24 26 27 26 25 24 22 20 18 17 16 16 17 17 18 19 21 21 20 20 19 18 17 17 17 18 19
19 20 20 20 19 18 17 16 16 17 18 20 22 22 22 23 24 24 26 28 28 28 26 24 22 20 19 18 18 18 18 19 20 20 20 20 19 19 19 18 18 18 19
20 19 19 19 19 18 16 15 15 16 16 18 20 20 21 22 23 25 25 27 28 30 30 28 27 24 23 21 21 20 20 20 21 21 21 21 21 21 20 20 20 20 19
21 20 19 19 19 18 17 16 15 16 16 17 18 20 21 22 23 25 27 28 29 31 33 32 31 29 27 25 23 22 22 21 22 22 23 22 22 22 22 22 22 21 21
20 20 19 19 20 20 19 18 17 17 17 17 18 18 20 21 21 23 26 29 30 32 34 34 33 32 31 29 28 26 25 23 23 23 23 24 24 24 23 23 23 23 23
19 19 20 19 20 20 20 21 21 20 19 19 20 20 20 20 20 21 23 26 29 32 35 36 37 35 34 33 31 30 28 26 25 24 25 25 26 25 25 25 25 25 24
19 20 20 20 20 20 21 22 23 23 23 22 22 22 22 21 20 20 20 22 27 30 34 37 37 37 37 36 34 33 31 29 28 29 29 28 27 27 27 27 27 27 27
20 20 20 20 20 20 21 22 23 24 24 24 24 24 23 23 21 20 20 21 23 27 31 35 37 36 36 36 36 35 34 31 31 32 31 30 30 30 30 30 30 30 30
22 22 21 20 21 21 21 21 22 23 24 24 24 24 24 24 23 22 21 21 22 23 26 29 33 34 35 35 35 35 34 33 33 33 32 32 33 33 33 32 32 33 33
22 23 22 21 21 21 21 22 22 22 23 24 24 24 24 25 24 24 23 22 22 21 22 23 26 29 31 32 33 33 32 32 32 33 33 34 35 34 34 33 33 33 34
21 22 21 20 19 19 19 20 20 21 23 24 24 24 25 26 26 25 24 24 23 23 23 22 22 24 26 28 30 31 32 32 32 32 33 33 34 34 33 33 33 33 34
20 19 19 19 18 18 19 20 20 21 22 22 23 24 25 26 26 26 26 25 25 24 23 23 23 24 24 26 27 29 30 31 32 33 34 34 34 35 33 34 34 34 34

GEFSMA_500_meanwind_024.txt.gz
Wind_Speed
8 7 6 6 7 7 7 7 6 5 6 7 10 13 16 18 19 19 18 18 18 18 17 17 16 15 14 13 12 12 14 15 17 19 19 19 18 15 12 10 9 8 7
11 10 8 8 8 8 9 9 8 7 7 8 10 12 14 17 20 21 22 22 22 22 22 21 21 20 19 17 16 15 15 17 18 20 20 21 20 17 14 11 10 9 8
13 12 12 11 10 10 11 12 11 11 10 10 11 12 14 16 18 20 22 23 24 24 24 24 23 22 21 21 20 18 17 18 18 19 21 22 22 19 16 13 11 10 9
14 15 14 12 12 13 14 15 15 15 14 13 13 14 15 16 18 19 21 22 23 23 24 24 24 23 22 21 21 20 19 19 20 19 20 22 23 21 17 14 12 11 10
16 16 15 14 15 16 17 18 18 17 17 16 16 16 17 17 18 20 20 21 22 23 23 23 23 23 22 21 20 20 20 20 21 21 21 22 22 22 19 16 14 12 11
18 17 17 17 18 20 20 21 21 20 19 19 19 19 19 19 19 20 21 22 22 23 23 22 22 22 22 21 19 19 20 21 22 23 22 23 22 22 21 18 16 14 12
18 17 19 20 22 23 23 23 23 23 22 21 21 20 21 21 21 21 21 22 23 23 23 22 22 22 22 22 20 19 20 21 23 24 24 23 23 22 22 21 19 16 15
19 20 21 22 24 24 25 25 25 25 24 23 23 22 21 22 22 21 21 22 23 23 23 23 23 23 23 23 21 20 20 22 23 25 25 25 24 24 23 22 21 19 17
20 21 22 24 25 25 26 27 27 27 26 26 25 25 24 23 22 23 22 22 23 23 23 23 23 24 24 24 23 21 21 22 23 25 26 26 25 24 24 23 23 22 20
22 22 23 24 25 26 26 27 27 28 28 28 28 27 26 24 23 23 23 23 23 23 23 23 23 24 24 24 24 23 22 22 23 24 25 26 26 26 25 25 24 24 23
23 24 24 24 25 25 26 27 27 28 28 30 30 30 29 27 24 24 24 24 24 23 22 21 22 24 24 24 24 24 24 24 24 24 25 25 26 26 26 26 26 25 25
23 24 24 24 24 25 26 27 27 27 28 29 31 32 32 29 26 25 25 24 24 23 22 21 21 22 24 24 24 24 24 24 24 24 25 25 25 25 25 25 25 25 25
23 24 24 24 24 24 25 26 26 27 27 28 29 31 32 30 28 27 26 25 25 24 23 22 21 21 22 23 23 24 24 24 24 24 24 24 24 24 24 24 24 25 25
23 23 24 23 23 24 25 26 26 25 25 26 27 29 30 28 26 26 26 25 26 25 25 23 22 21 21 21 22 22 23 24 24 24 24 23 23 23 23 23 23 23 23
23 23 23 24 24 24 25 25 25 24 24 24 25 26 27 26 25 23 26 26 26 27 27 26 24 21 20 19 20 20 21 23 24 24 24 24 24 23 23 23 22 22 22
24 24 25 25 25 25 25 25 24 23 23 23 23 23 23 23 22 22 23 25 26 27 28 27 26 23 20 19 19 19 19 21 22 23 24 24 24 23 23 22 22 21 21
25 26 26 26 26 26 25 24 23 22 22 21 20 20 20 20 20 20 21 22 23 25 27 29 28 26 25 23 22 20 19 19 20 21 22 23 23 23 23 23 22 22 21
26 27 27 27 26 25 24 23 22 22 21 21 20 20 19 18 18 18 20 21 22 24 26 28 30 28 28 28 26 24 22 22 22 21 21 22 22 23 23 23 23 23 23
25 25 25 24 24 23 23 22 22 22 21 21 20 19 19 19 19 19 18 20 20 22 24 27 30 30 30 30 29 27 26 25 24 23 22 22 23 24 24 25 25 25 25
23 22 23 23 22 22 21 21 21 21 21 21 21 20 20 19 19 18 18 19 20 21 24 25 28 30 32 33 33 32 31 30 28 26 25 25 25 25 26 26 26 27 27
20 21 21 22 22 22 22 21 21 21 22 22 22 22 21 21 20 19 19 19 20 21 22 24 27 29 30 32 34 35 35 33 31 30 30 29 28 27 28 28 29 30 30
20 21 22 22 22 22 22 22 21 21 22 22 22 22 22 22 22 21 21 21 21 21 22 23 24 26 28 30 34 36 37 36 35 35 34 32 31 31 31 30 31 31 31
20 21 21 22 22 23 23 22 22 22 22 22 22 22 22 22 22 22 22 22 22 22 22 23 23 24 25 27 30 33 36 37 37 37 36 36 35 35 34 32 32 32 32
20 21 22 22 22 23 23 23 22 22 22 22 22 22 22 22 21 21 22 22 22 23 24 24 24 24 24 25 27 31 34 37 38 39 39 38 38 37 36 34 34 34 34
20 21 21 21 21 21 22 21 21 21 21 21 21 21 21 22 21 21 22 22 22 22 23 23 23 23 23 24 24 26 30 33 36 38 39 39 39 40 38 37 36 36 36
20 20 20 20 19 19 19 20 20 20 20 20 20 21 21 21 21 22 22 22 22 22 22 23 23 23 23 23 23 23 24 26 29 33 37 38 39 40 39 39 38 37 37

GEFSMA_500_meanwind_030.txt.gz
Wind_Speed
11 11 10 9 8 6 5 5 4 4 4 5 6 8 10 12 14 15 15 15 16 16 16 17 17 16 15 14 13 12 11 11 12 14 17 19 19 19 18 16 14 13 12
14 13 13 12 11 10 9 8 7 6 6 7 8 9 10 12 14 16 18 19 20 20 20 20 20 20 19 18 17 16 14 13 13 14 16 18 20 20 20 18 16 14 13
16 16 15 15 14 14 13 12 11 10 9 9 10 11 12 13 15 16 18 21 22 24 24 24 24 24 23 23 22 20 19 18 16 16 16 18 20 21 22 20 18 16 15
18 18 17 17 17 16 16 15 14 13 13 12 12 13 13 15 16 17 18 20 22 24 25 26 27 27 27 26 25 24 23 22 20 19 18 18 20 21 23 22 20 17 16
20 19 19 19 19 18 18 17 17 16 16 16 16 16 16 17 17 18 19 20 22 23 24 25 26 27 27 27 26 26 25 24 23 22 20 20 19 20 22 23 22 19 17
22 21 20 20 20 20 20 20 19 19 19 19 19 19 19 19 19 20 20 21 22 24 24 25 25 25 26 26 26 26 25 24 24 23 22 21 20 20 22 24 24 22 19
24 23 22 21 21 21 21 22 22 22 22 22 21 21 21 21 22 22 22 22 23 24 25 25 25 24 25 25 24 25 24 24 23 23 23 22 21 21 21 23 25 24 21
27 25 24 23 22 22 23 23 23 24 24 24 23 23 23 24 24 23 23 23 24 25 25 25 25 24 24 24 24 24 24 24 23 23 23 23 23 22 22 23 25 25 23
29 27 26 25 24 24 24 24 24 24 25 25 25 25 26 26 26 25 25 24 25 25 25 25 25 24 24 24 24 24 24 25 24 23 23 24 24 24 23 23 25 25 25
30 28 27 26 25 25 25 24 24 25 25 26 26 26 27 28 29 27 27 26 25 25 25 25 25 24 24 24 25 25 26 26 25 24 24 24 25 25 25 24 24 26 25
31 28 27 27 26 25 25 25 25 25 25 26 26 27 27 28 29 29 29 28 27 26 25 25 25 24 24 24 25 26 26 27 27 26 25 25 25 26 26 26 26 26 26
31 28 27 26 26 25 25 25 25 24 24 25 26 27 27 27 29 29 29 29 28 27 26 27 27 26 25 24 25 26 27 27 28 27 27 26 26 26 27 27 28 28 28
31 28 26 25 24 24 25 24 24 24 24 24 25 25 26 26 26 27 28 29 29 27 26 27 27 27 26 24 24 25 27 27 28 29 28 28 27 27 26 27 28 28 28
28 24 23 22 22 23 23 23 23 23 24 24 24 24 24 25 25 25 26 28 28 28 27 27 27 27 27 25 24 24 26 27 28 29 29 29 29 28 27 27 27 27 27
21 19 20 20 21 21 22 22 22 22 23 23 23 23 23 23 24 24 25 26 27 27 27 27 26 27 26 25 24 24 24 25 26 27 28 29 29 29 28 27 27 26 26
15 16 19 19 20 21 22 22 22 22 22 23 23 22 22 22 21 22 22 23 24 25 26 26 26 26 26 25 25 24 23 24 25 25 27 28 28 28 28 27 27 26 25
14 16 17 19 20 21 21 21 21 21 22 22 22 22 22 21 21 20 20 21 22 23 25 26 27 27 27 27 26 25 23 23 23 23 24 25 26 27 27 27 27 26 26
14 16 17 18 19 20 20 20 20 20 21 21 22 22 22 21 21 20 20 20 20 21 23 25 26 26 27 28 27 26 24 23 23 22 22 22 23 24 25 26 26 26 26
14 16 17 18 19 19 19 19 19 19 20 20 21 22 22 22 21 20 20 20 20 20 22 24 25 26 26 27 28 28 26 25 25 24 22 22 21 22 23 24 24 24 25
15 16 17 18 18 19 19 20 20 20 20 21 21 21 22 22 22 21 20 21 21 20 21 22 24 25 26 28 29 29 29 28 28 27 26 25 23 23 23 23 23 24 24
15 17 18 18 19 20 20 21 21 21 21 22 22 22 22 22 22 22 21 22 22 21 21 21 22 23 24 26 27 29 30 31 31 30 29 28 27 26 26 25 25 25 25
17 18 19 19 20 21 21 22 22 22 22 22 22 22 22 22 22 23 23 23 23 23 23 22 22 23 23 25 27 26 28 30 31 33 33 33 32 31 30 29 29 28 28
19 20 21 21 22 22 22 22 22 22 23 23 23 23 23 22 22 22 23 24 24 23 24 24 23 23 23 23 24 25 26 27 29 31 33 34 34 34 34 33 33 33 32
20 21 21 22 22 22 22 22 22 23 24 23 22 22 22 22 22 22 23 23 24 24 24 24 24 24 24 24 24 25 26 27 28 29 31 33 34 35 37 37 38 38 37
20 21 22 22 23 22 22 22 22 23 23 22 22 22 22 22 22 22 22 23 23 23 24 24 24 25 25 25 25 25 26 26 26 28 30 33 35 36 37 38 39 40 40
20 20 21 21 22 22 22 22 22 22 22 22 21 21 21 21 21 22 22 22 23 23 23 23 24 24 25 25 25 25 25 26 26 27 29 30 32 34 36 38 39 40 41